Location: Gand�
(15.0971°N, 12.6564°W)
Time: 15:23:04
(UTC+00:00)

NOSS 2-2 (D) - Pass Details

Date: 07 August 2020
Orbit: 469 x 1739 km, 63.3° (Epoch: 17 September)

Event Time Altitude Azimuth Distance (km) Brightness Sun altitude
Exits shadow 05:36:39 23° 266° (W) 1,105 4.3 -14.1°
Maximum altitude 05:37:44 27° 295° (WNW) 974 4.2 -13.8°
Drops below altitude 10° 05:40:46 10° 355° (N) 1,626 5.9 -13.1°
Sets 05:43:02 0° 9° (N) 2,496 7.1 -12.6°
